Location: Sungai Bunut
(2.6333°N, 113.7333°E)
Time: 01:27:01
(UTC+00:00)

S-56A Canister/Altair - Pass Details

Date: 04 December 2023
Orbit: 640 x 2488 km, 38.9° (Epoch: 24 February)

Event Time Altitude Azimuth Distance (km) Brightness Sun altitude
Rises 14:34:24 0° 275° (W) 4,894 11.9 -58.6°
Reaches altitude 10° 14:38:14 10° 261° (W) 4,192 11.5 -59.4°
Maximum altitude 14:47:04 24° 212° (SSW) 3,681 11.1 -61.0°
Drops below altitude 10° 14:57:45 10° 165° (SSE) 5,092 11.8 -62.8°
Sets 15:03:13 0° 152° (SSE) 6,163 12.3 -63.7°
